Location: ??????????
(54.8537°N, 38.8755°E)
Time: 06:04:18
(UTC+00:00)

Tiros 1 despin weight - Pass Details

Date: 14 September 2024
Orbit: 573 x 615 km, 48.2° (Epoch: 02 October)

Event Time Altitude Azimuth Distance (km) Brightness Sun altitude
Rises 03:42:18 0° 254° (WSW) 2,886 ? 5.9°
Reaches altitude 10° 03:44:44 10° 246° (WSW) 1,982 ? 6.2°
Maximum altitude 03:48:54 36° 180° (S) 984 ? 6.8°
Drops below altitude 10° 03:53:04 10° 114° (ESE) 1,977 ? 7.4°
Sets 03:55:30 0° 106° (ESE) 2,878 ? 7.7°
